Regional Weather Roundup
Issued by NWS

Home | Current Version | Previous Version | Graphics & Text | Print | Product List | Glossary Off
Versions: 1 2 3 4 5 6 7 8 9 10 11 12 13 14 15 16 17 18 19 20 21 22 23 24 25 26 27 28 29 30 31 32 33 34 35 36 37 38 39 40 41 42 43 44 45 46 47 48 49 50

000
ASUS43 KMPX 311210
RWRMN
WEATHER ROUNDUP FOR MINNESOTA
NATIONAL WEATHER SERVICE TWIN CITIES/CHANHASSEN MN
700 AM CDT FRI JUL 31 2015


NOTE: "FAIR" INDICATES FEW OR NO CLOUDS BELOW 12,000 FEET WITH NO
SIGNIFICANT WEATHER AND/OR OBSTRUCTIONS TO VISIBILITY. N/A MEANS
CURRENT SKY AND/OR WEATHER CONDITIONS ARE NOT AVAILABLE.

MNZ060>063-068>070-311300-
   Twin Cities Metro

CITY           SKY/WX    TMP DP  RH WIND       PRES   REMARKS
TWIN CITIES    CLEAR     67  55  65 W8        30.06R
6HR MIN TEMP:  65; 6HR MAX TEMP:  73;

ST PAUL        CLEAR     67  54  63 W7        30.06R
CRYSTAL        CLEAR     66  55  67 W9        30.05R
BLAINE         CLEAR     66  55  68 W9        30.05R
LAKEVILLE      CLEAR     63  57  82 W6        30.08R
EDEN PRAIRIE   CLEAR     65  57  75 W7        30.07R
6HR MIN TEMP:  62; 6HR MAX TEMP:  71;

SOUTH ST PAUL  CLEAR     66  56  70 W8        30.06R
LAKE ELMO      FAIR      63  55  77 W6        30.06R
$$
MNZ001>005-007-008-013>017-022>024-027-028-311300-
   Northwest Minnesota

CITY           SKY/WX    TMP DP  RH WIND       PRES   REMARKS
BEMIDJI        CLEAR     57  50  78 W8        30.03R
HALLOCK        CLEAR     55  52  88 W6        30.01S
ROSEAU         CLEAR     57  52  82 W8        29.99S
WARROAD        CLEAR     55  52  88 W7        29.98S
THIEF RVR FALL CLEAR     55  50  82 W7        30.04R
CROOKSTON      CLEAR     55  52  88 W6        30.05R
FOSSTON        CLEAR     55  50  82 CALM      30.06R
DETROIT LAKES  CLEAR     61  52  72 W8        30.09R
MOORHEAD       CLEAR     55  54  94 SW6       30.09R
PARK RAPIDS    CLEAR     57  51  80 W8        30.06R
MAHNOMEN       FAIR      55  51  87 W7        30.07R
$$
MNZ006-009>011-018-025>026-311300-
   North Central Minnesota

CITY           SKY/WX    TMP DP  RH WIND       PRES   REMARKS
BAUDETTE       CLEAR     57  52  83 W7        29.97R
FLAG ISLAND    CLEAR     59  54  82 W10       29.94S
INTL FALLS     SUNNY     56  53  90 W8        29.94R
6HR MIN TEMP:  54; 6HR MAX TEMP:  59;

WASKISH        CLEAR     63  55  77 W13G21    29.99R
BIG FORK       SUNNY     57  54  88 W3        29.99R
LONGVILLE      CLEAR     59  52  77 W6        30.02R
GRAND RAPIDS   CLEAR     61  50  67 W9        30.00R
CRANE LAKE     SUNNY     55  54  94 SW3       29.94R
ORR            SUNNY     55  52  88 NW6       29.93R
COOK           SUNNY     55  54  94 W3        29.96R
WALKER         FAIR      57  50  77 W8        30.03S
$$
MNZ012-019>021-037-311300-
   Northeast Minnesota

CITY           SKY/WX    TMP DP  RH WIND       PRES   REMARKS
DULUTH         SUNNY     62  52  69 W13       29.96R
6HR MIN TEMP:  60; 6HR MAX TEMP:  66;

ELY            SUNNY     57  54  88 CALM      29.93R
HIBBING        SUNNY     61  53  75 W8        29.96R
EVELETH        SUNNY     59  52  77 W6        29.96S
DULUTH HARBOR  SUNNY     66  55  68 W14       29.95R
TWO HARBORS    SUNNY     64  55  72 W5        29.92R
SILVER BAY     SUNNY     61  55  82 CALM      29.90S
GRAND MARAIS     N/A     64  55  72 NW9       29.85R
G MARAIS ARPRT   N/A     57  52  82 W5        29.89R
$$
MNZ029>031-032-039>041-046>048-054>057-064-311300-
   West Central Minnesota

CITY           SKY/WX    TMP DP  RH WIND       PRES   REMARKS
FERGUS FALLS   CLEAR     55  54  94 NW3       30.10S
WHEATON        CLEAR     57  52  82 SW5       30.13S
MORRIS         CLEAR     59  55  88 W5        30.11S
ALEXANDRIA     CLEAR     61  55  81 W8        30.12R
ELBOW LAKE     FAIR      56  53  91 W5        30.11R
WADENA         CLEAR     57  52  82 W6        30.08R
GLENWOOD       CLEAR     59  55  88 W7        30.11S
APPLETON         N/A     57  54  88 W6        30.12S
BENSON         CLEAR     57  54  88 CALM      30.12S
ORTONVILLE     CLEAR     63  54  72 W5        30.13R
MADISON        CLEAR     57  54  88 CALM      30.13S
WILLMAR        FAIR      61  57  88 W7        30.13S
$$
MNZ033>034-036-042>043-049>051-058-059-311300-
   Central Minnesota

CITY           SKY/WX    TMP DP  RH WIND       PRES   REMARKS
ST CLOUD       CLEAR     64  53  67 W8        30.07R
6HR MIN TEMP:  61; 6HR MAX TEMP:  68;

SAUK CENTRE    FAIR      58  55  88 W8        30.10R
PAYNESVILLE    CLEAR     54  54  99 SW6       30.10S
AITKIN         CLEAR     61  52  72 W6        30.02R
PINE RIVER     CLEAR     57  52  82 W6        30.07R
BRAINERD       CLEAR     63  51  65 W9G18     30.05R
STAPLES        CLEAR     57  52  82 W7        30.07R
LONG PRAIRIE   FAIR      59  54  82 SW7       30.09R
LITTLE FALLS   CLEAR     59  50  72 W5        30.07R
LITCHFIELD     CLEAR     64  59  82 W5        30.11R
BUFFALO        CLEAR     63  56  79 W7        30.09R
MAPLE LAKE     CLEAR     64  57  77 W5        30.08R
$$
MNZ037-044-045-052-053-311300-
   East Central Minnesota

CITY           SKY/WX    TMP DP  RH WIND       PRES   REMARKS
PRINCETON      CLEAR     63  54  72 W7        30.06R
MORA           CLEAR     59  50  72 W5        30.05R
CAMBRIDGE      CLEAR     66  52  59 W8        30.03R
RUSH CITY      PTCLDY    60  53  77 W3        30.03R
MOOSE LAKE     SUNNY     59  52  77 W6        29.99R
HINCKLEY       FAIR      61  54  77 W8        30.01R
CLOQUET        SUNNY     61  50  67 W9        29.98R
MCGREGOR       CLEAR     61  52  72 W7        30.02R
$$
MNZ071>073-080-081-089-090-097-098-311300-
   Southwest Minnesota

CITY           SKY/WX    TMP DP  RH WIND       PRES   REMARKS
MONTEVIDEO     CLEAR     61  55  82 NW6       30.14S
GRANITE FALLS  CLEAR     56  54  92 W5        30.14S
CANBY          CLEAR     60  54  78 W5        30.15R
MARSHALL       CLEAR     59  52  77 W5        30.15R
REDWOOD FALLS  CLEAR     61  56  83 NW7       30.12R
OLIVIA         CLEAR     57  52  82 NW6       30.11S
PIPESTONE      PTCLDY    61  57  88 NE3       30.16R
WINDOM         PTCLDY    64  57  77 CALM      30.14S
WORTHINGTON    CLOUDY    61  54  77 W3        30.16R
JACKSON        PTCLDY    63  59  88 W3        30.15R
TRACY          CLEAR     63  55  77 W5        30.15R
SLAYTON        CLOUDY    63  58  84 CALM      30.16R
$$
MNZ065>067-074>077-082>085-091>093-311300-
   South Central Minnesota

CITY           SKY/WX    TMP DP  RH WIND       PRES   REMARKS
MANKATO        CLEAR     63  55  77 NW6       30.11R
NEW ULM        CLEAR     59  57  94 W7        30.12R
ST JAMES       CLEAR     61  57  88 W6        30.13S
FAIRMONT       CLOUDY    66  55  68 NW5       30.13R
GLENCOE        CLEAR     62  59  90 W5        30.10R
FARIBAULT      CLEAR     64  59  82 W5        30.09S
OWATONNA       CLEAR     61  57  88 CALM      30.10R
WASECA         CLEAR     59  57  94 W3        30.12R
ALBERT LEA     CLEAR     64  59  82 W3        30.11S
$$
MNZ078>079-086>088-094>096-311300-
   Southeast Minnesota

CITY           SKY/WX    TMP DP  RH WIND       PRES   REMARKS
ROCHESTER      CLEAR     62  59  90 W8        30.10R
6HR MIN TEMP:  61; 6HR MAX TEMP:  66;

RED WING       CLEAR     63  61  94 W3        30.04R
STANTON        CLEAR     63  58  82 W6        30.07R
DODGE CENTER   CLEAR     63  57  82 W8        30.10R
WINONA         SUNNY     70  61  73 NW6       30.04R
AUSTIN         CLEAR     66  59  77 W8        30.10R
PRESTON        CLEAR     63  58  83 NW9       30.09R
$$
ABBREVIATIONS USED IN REMARKS
   TC - TEMPERATURES IN CELSIUS
  WCI - WIND CHILL INDEX
   HX - HEAT INDEX
  VSB - VISIBILITY
$$



USA.gov is the U.S. government's official web portal to all federal, state and local government web resources and services.